{"data":{"norad_id":54758,"epoch":"2026-05-25T01:05:18.263328Z","epoch_age_seconds":71092,"freshness":"FRESH","line1":"1 54758U 22175A   26145.04535027 -.00002497  00000+0 -13881-3 0  9997","line2":"2 54758  53.2135  56.5401 0002064  85.2679 274.8548 15.08847626191512","mean_motion":15.08847626,"eccentricity":0.0002064,"inclination_deg":53.2135,"raan_deg":56.5401,"arg_perigee_deg":85.2679,"mean_anomaly_deg":274.8548,"bstar":-0.00013881,"rev_number":19151,"period_min":95.437072318395,"perigee_km":538.29223372991,"apogee_km":541.1479251323,"semimajor_km":6917.8570794311,"source":"CELESTRAK","updated_at":"2026-05-25T13:38:17.687631Z"}}